BEIDOU-3 IGSO-2 (44337 NORAD) Tracking and Keplerian Element Data

This shows tracking and keplerian element data for the satellite.

Feedback or suggestion? Click here.




ElementValue
Catalog44337
NameBEIDOU-3 IGSO-2
Epoch Orbit41
Epoch Day203.63036388
Epoch Year2019
RAAN181.3466
Inclination55.0504
Eccentricity0.0012022
Argument of Perigee186.7479
Mean Anonmoly265.5184
Mean Motion1.00289123
Decay Rate-7.5E-07
L11 44337U 19035A 19203.63036388 -.00000075 00000-0 00000+0 0 9993
L22 44337 55.0504 181.3466 0012022 186.7479 265.5184 1.00289123 412

Live tracking and technical data element details for BEIDOU-3 IGSO-2 (NORAD 44337). BEIDOU-3 IGSO-2 can be tracked NOW for your location showing map with azimuth and elevation plus other details from your city location.

Track the satellite on the map from your city or location and see movement details for azimuth, elevation, latitude, longitude, range, height, and movement on the map or in text.







IsCatalogInMostPopularTable: catalog: 44337, numindb: 13
Update: records affected: 1



GetName: 44337 BEIDOU-3 IGSO-2

Hit Count: updated at: Thu, 05 Dec 2019 17:00:26 GMT